When you browse on this site, cookies collect data to enhance your experience and personalize the content and advertising you see.
Visit our Privacy Policy to learn more. By continuing to use the site, you agree to this use of cookies and data.
  • In Hungary
  • List of Countries
  • For 7 days
  • Water Temperature
  • Satellite Maps
  • Weather Map
  • News
  • Weather Widgets
  • user-avatar
    Login

    Hourly Weather Antananarivo

    Today, 16 January, Wednesday

    Time Temperature Precipitation Wind Pressure Humidity
    00:00 +18°C° 0 mm 2 mps 657 mmHg 94%
    01:00 +18°C° 0 mm 2 mps 657 mmHg 94%
    02:00 +18°C° 0 mm 1 mps 656 mmHg 95%
    03:00 +18°C° 0 mm 1 mps 656 mmHg 96%
    04:00 +18°C° 0 mm 1 mps 656 mmHg 94%
    05:00 +18°C° 0 mm 1 mps 656 mmHg 93%
    06:00 +18°C° 0 mm 1 mps 657 mmHg 91%
    07:00 +19°C° 0 mm 2 mps 657 mmHg 84%
    08:00 +21°C° 0 mm 2 mps 657 mmHg 77%
    09:00 +24°C° 0 mm 2 mps 658 mmHg 70%
    10:00 +26°C° 0 mm 2 mps 658 mmHg 65%
    11:00 +27°C° 0 mm 2 mps 658 mmHg 60%
    12:00 +28°C° 0 mm 2 mps 658 mmHg 55%
    13:00 +28°C° 1.1 mm 3 mps 657 mmHg 60%
    14:00 +27°C° 1.1 mm 3 mps 657 mmHg 64%
    15:00 +27°C° 1.1 mm 3 mps 656 mmHg 69%
    16:00 +26°C° 0.9 mm 3 mps 656 mmHg 74%
    17:00 +25°C° 0.9 mm 2 mps 656 mmHg 79%
    18:00 +24°C° 0.9 mm 2 mps 655 mmHg 84%
    19:00 +23°C° 0.3 mm 2 mps 655 mmHg 88%
    20:00 +21°C° 0.3 mm 2 mps 656 mmHg 91%
    21:00 +20°C° 0.3 mm 2 mps 656 mmHg 95%
    22:00 +20°C° 0.1 mm 2 mps 656 mmHg 95%
    23:00 +20°C° 0.1 mm 2 mps 656 mmHg 94%

    Tomorrow, 17 January, Thursday

    Time Temperature Precipitation Wind Pressure Humidity
    00:00 +20°C° 0.1 mm 2 mps 656 mmHg 94%
    01:00 +19°C° 0.1 mm 2 mps 656 mmHg 95%
    02:00 +20°C° 0.1 mm 1 mps 655 mmHg 96%
    03:00 +19°C° 0.1 mm 1 mps 655 mmHg 97%
    04:00 +19°C° 0 mm 1 mps 655 mmHg 97%
    05:00 +19°C° 0 mm 1 mps 655 mmHg 96%
    06:00 +17°C° 0 mm 0 mps 655 mmHg 96%
    07:00 +21°C° 0 mm 1 mps 656 mmHg 87%
    08:00 +23°C° 0 mm 1 mps 656 mmHg 78%
    09:00 +25°C° 0 mm 2 mps 657 mmHg 68%
    10:00 +26°C° 0 mm 2 mps 657 mmHg 63%
    11:00 +27°C° 0 mm 2 mps 657 mmHg 57%
    12:00 +29°C° 0 mm 2 mps 657 mmHg 52%
    13:00 +29°C° 0.2 mm 2 mps 656 mmHg 53%
    14:00 +29°C° 0.2 mm 2 mps 655 mmHg 53%
    15:00 +29°C° 0.2 mm 2 mps 655 mmHg 54%
    16:00 +27°C° 0.6 mm 2 mps 655 mmHg 63%
    17:00 +26°C° 0.6 mm 2 mps 654 mmHg 73%
    18:00 +24°C° 0.6 mm 3 mps 654 mmHg 82%
    19:00 +23°C° 0.7 mm 2 mps 654 mmHg 86%
    20:00 +22°C° 0.7 mm 1 mps 655 mmHg 90%
    21:00 +21°C° 0.7 mm 1 mps 655 mmHg 94%
    22:00 +20°C° 0.2 mm 1 mps 655 mmHg 93%
    23:00 +18°C° 0.2 mm 0 mps 655 mmHg 92%

    Day after tomorrow, 18 January, Friday

    Time Temperature Precipitation Wind Pressure Humidity
    00:00 +18°C° 0.2 mm 0 mps 655 mmHg 92%
    01:00 +18°C° 0 mm 0 mps 655 mmHg 92%
    02:00 +17°C° 0 mm 0 mps 654 mmHg 93%
    03:00 +17°C° 0 mm 0 mps 654 mmHg 94%
    04:00 +17°C° 0 mm 0 mps 654 mmHg 94%
    05:00 +17°C° 0 mm 0 mps 654 mmHg 94%
    06:00 +17°C° 0 mm 0 mps 654 mmHg 94%
    07:00 +20°C° 0 mm 0 mps 655 mmHg 85%
    08:00 +22°C° 0 mm 0 mps 656 mmHg 77%
    09:00 +26°C° 0 mm 1 mps 657 mmHg 68%
    10:00 +28°C° 0 mm 1 mps 656 mmHg 62%
    11:00 +29°C° 0 mm 1 mps 656 mmHg 56%
    12:00 +30°C° 0 mm 2 mps 656 mmHg 50%
    13:00 +30°C° 0.1 mm 2 mps 656 mmHg 50%
    14:00 +30°C° 0.1 mm 2 mps 655 mmHg 51%
    15:00 +30°C° 0.1 mm 2 mps 655 mmHg 52%
    16:00 +28°C° 0.7 mm 2 mps 654 mmHg 61%
    17:00 +26°C° 0.7 mm 2 mps 654 mmHg 71%
    18:00 +25°C° 0.7 mm 2 mps 654 mmHg 80%
    19:00 +24°C° 0.7 mm 2 mps 654 mmHg 84%
    20:00 +21°C° 0.7 mm 2 mps 655 mmHg 88%
    21:00 +20°C° 0.7 mm 2 mps 655 mmHg 93%
    22:00 +21°C° 0.1 mm 1 mps 655 mmHg 93%
    23:00 +21°C° 0.1 mm 1 mps 655 mmHg 93%

    19 January, Saturday

    Time Temperature Precipitation Wind Pressure Humidity
    00:00 +20°C° 0.1 mm 1 mps 655 mmHg 93%
    01:00 +20°C° 0 mm 1 mps 655 mmHg 94%
    02:00 +20°C° 0 mm 1 mps 654 mmHg 94%
    03:00 +20°C° 0 mm 1 mps 654 mmHg 95%
    04:00 +20°C° 0.1 mm 1 mps 654 mmHg 95%
    05:00 +20°C° 0.1 mm 1 mps 654 mmHg 95%
    06:00 +20°C° 0.1 mm 1 mps 655 mmHg 95%
    07:00 +22°C° 0.1 mm 1 mps 655 mmHg 88%
    08:00 +24°C° 0.1 mm 1 mps 656 mmHg 80%
    09:00 +26°C° 0.1 mm 1 mps 657 mmHg 72%
    10:00 +27°C° 0.2 mm 1 mps 657 mmHg 66%
    11:00 +29°C° 0.2 mm 1 mps 657 mmHg 59%
    12:00 +31°C° 0.2 mm 1 mps 657 mmHg 53%
    13:00 +30°C° 1 mm 1 mps 656 mmHg 55%
    14:00 +30°C° 1 mm 1 mps 655 mmHg 57%
    15:00 +29°C° 1 mm 1 mps 655 mmHg 59%
    16:00 +28°C° 1.6 mm 1 mps 655 mmHg 67%
    17:00 +26°C° 1.6 mm 2 mps 655 mmHg 74%
    18:00 +25°C° 1.6 mm 2 mps 655 mmHg 82%
    19:00 +23°C° 1.5 mm 2 mps 655 mmHg 85%
    20:00 +21°C° 1.5 mm 2 mps 655 mmHg 89%
    21:00 +20°C° 1.5 mm 2 mps 656 mmHg 92%
    22:00 +21°C° 0.5 mm 1 mps 655 mmHg 93%
    23:00 +21°C° 0.5 mm 1 mps 655 mmHg 93%

    20 January, Sunday

    Time Temperature Precipitation Wind Pressure Humidity
    00:00 +21°C° 0.5 mm 1 mps 655 mmHg 94%
    01:00 +20°C° 0 mm 1 mps 655 mmHg 94%
    02:00 +18°C° 0 mm 0 mps 654 mmHg 95%
    03:00 +18°C° 0 mm 0 mps 654 mmHg 96%
    04:00 +18°C° 0 mm 0 mps 654 mmHg 96%
    05:00 +18°C° 0 mm 0 mps 654 mmHg 95%
    06:00 +18°C° 0 mm 0 mps 655 mmHg 95%
    07:00 +22°C° 0 mm 1 mps 655 mmHg 86%
    08:00 +24°C° 0 mm 1 mps 656 mmHg 77%
    09:00 +26°C° 0 mm 1 mps 657 mmHg 68%
    10:00 +27°C° 0 mm 1 mps 656 mmHg 62%
    11:00 +29°C° 0 mm 2 mps 656 mmHg 56%
    12:00 +30°C° 0 mm 2 mps 656 mmHg 50%
    13:00 +30°C° 0.5 mm 2 mps 656 mmHg 54%
    14:00 +29°C° 0.5 mm 3 mps 655 mmHg 58%
    15:00 +29°C° 0.5 mm 3 mps 655 mmHg 63%
    16:00 +27°C° 1.3 mm 3 mps 654 mmHg 72%
    17:00 +25°C° 1.3 mm 3 mps 654 mmHg 81%
    18:00 +22°C° 1.3 mm 3 mps 654 mmHg 89%
    19:00 +22°C° 2 mm 3 mps 655 mmHg 90%
    20:00 +21°C° 2 mm 3 mps 655 mmHg 91%
    21:00 +21°C° 2 mm 3 mps 656 mmHg 92%
    22:00 +21°C° 1.6 mm 2 mps 655 mmHg 93%
    23:00 +20°C° 1.6 mm 2 mps 655 mmHg 94%

    21 January, Monday

    Time Temperature Precipitation Wind Pressure Humidity
    00:00 +20°C° 1.6 mm 2 mps 655 mmHg 95%
    01:00 +20°C° 0 mm 2 mps 655 mmHg 95%
    02:00 +21°C° 0 mm 1 mps 654 mmHg 96%
    03:00 +20°C° 0 mm 1 mps 654 mmHg 96%
    04:00 +20°C° 0 mm 1 mps 654 mmHg 96%
    05:00 +19°C° 0 mm 2 mps 655 mmHg 96%
    06:00 +20°C° 0 mm 2 mps 655 mmHg 96%
    07:00 +21°C° 0 mm 2 mps 655 mmHg 92%
    08:00 +23°C° 0 mm 2 mps 656 mmHg 88%
    09:00 +24°C° 0 mm 3 mps 656 mmHg 83%
    10:00 +25°C° 0.1 mm 3 mps 656 mmHg 78%
    11:00 +26°C° 0.1 mm 3 mps 656 mmHg 73%
    12:00 +28°C° 0.1 mm 4 mps 656 mmHg 67%
    13:00 +27°C° 0.4 mm 4 mps 655 mmHg 69%
    14:00 +27°C° 0.4 mm 4 mps 654 mmHg 70%
    15:00 +27°C° 0.4 mm 5 mps 654 mmHg 72%
    16:00 +26°C° 0.1 mm 4 mps 654 mmHg 76%
    17:00 +23°C° 0.1 mm 4 mps 654 mmHg 81%
    18:00 +22°C° 0.1 mm 4 mps 654 mmHg 85%
    19:00 +22°C° 0.1 mm 4 mps 654 mmHg 87%
    20:00 +22°C° 0.1 mm 3 mps 655 mmHg 88%
    21:00 +21°C° 0.1 mm 3 mps 655 mmHg 89%
    22:00 +21°C° 0.1 mm 3 mps 655 mmHg 90%
    23:00 +21°C° 0.1 mm 3 mps 655 mmHg 91%
    Show more